Weather Service Report


609 
ASUS41 KRLX 200910
RWRRLX
West Virginia Regional Weather Roundup
National Weather Service Charleston WV
500 AM EDT FRI OCT 20 2017

Note: "fair" indicates few or no clouds below 12,000 feet with no
significant weather and/or obstructions to visibility.

WVZ003-201000-
Northern Panhandle of West Virginia
  
CITY           SKY/WX    TMP DP  RH WIND       PRES   REMARKS
WHEELING         N/A     54  47  77 SW3       30.22S                  
$$

WVZ009-201000-
Northwest West Virginia
  
CITY           SKY/WX    TMP DP  RH WIND       PRES   REMARKS
PARKERSBURG      N/A     47  45  93 CALM      30.27R                  
$$

WVZ006-201000-
Western West Virginia
  
CITY           SKY/WX    TMP DP  RH WIND       PRES   REMARKS
HUNTINGTON       N/A     48  45  89 S3        30.26R                  
$$

WVZ015-201000-
West Central West Virginia
  
CITY           SKY/WX    TMP DP  RH WIND       PRES   REMARKS
CHARLESTON       N/A     46  43  89 CALM      30.26S                  
$$

WVZ022-031-201000-
North Central West Virginia
  
CITY           SKY/WX    TMP DP  RH WIND       PRES   REMARKS
CLARKSBURG       N/A     50  43  77 CALM      30.25R                  
MORGANTOWN       N/A     52  43  71 CALM      30.24S                  
$$

WVZ025-035-042-045-201000-
Southern West Virginia
  
CITY           SKY/WX    TMP DP  RH WIND       PRES   REMARKS
BECKLEY          N/A     46  40  79 CALM      30.30R                  
LOGAN            N/A     48  46  93 CALM      30.28S                  
BLUEFIELD        N/A     50  39  66 W7        30.31S                  
LEWISBURG        N/A     40  38  92 CALM      30.30S                  
$$

WVZ047-201000-
Northern Mountains of West Virginia
  
CITY           SKY/WX    TMP DP  RH WIND       PRES   REMARKS
ELKINS           N/A     38  36  92 CALM      30.28S                  
$$

WVZ052-201000-
Eastern Panhandle of West Virginia
  
CITY           SKY/WX    TMP DP  RH WIND       PRES   REMARKS
MARTINSBURG      N/A     51  43  74 SW3       30.18R                  
PETERSBURG       N/A     41  40  94 CALM      30.24S                  
$$
  

Return to Home page


Western Regional Climate Center, wrcc@dri.edu